[[{"header":{"parameterUnit":"m.s-1","parameterCategory":1,"la1":30.2991,"la2":30.254,"lo1":-89.0895,"lo2":-89.0444,"dy":0.0017,"dx":0.0017,"nx":28,"ny":28,"refTime":"2024-06-26T21:00:00:Z","depth":0,"parameterNumber":2,"parameterNumberName":"U-component_of_WINDS"},"data":[0,0,0,0,0,0,0,0,0,0,0,0,0,0,0,0,0,0,0,0,0,0,0,0,0,0,0,0,0,0,0,0,0,0,0,0,0,0,0,0,0,0,0,0,0,0,0,0,0,0,0,0,0,0,0,0,0,0,5.1394,5.1395,0,5.1496,5.1498,5.1499,5.1376,5.1371,5.1367,5.1362,5.1472,5.1479,5.1486,0,0,0,0,0,0,0,0,0,0,0,0,0,5.1098,5.1104,5.1394,5.1395,5.1397,5.1496,5.1498,5.1499,5.1377,5.1371,5.1366,5.136,5.147,5.1478,5.1487,0,0,0,0,0,0,0,0,0,0,0,0,0,5.1217,5.1106,5.1394,5.1347,5.1344,5.1496,5.1498,5.1499,5.1378,5.1371,5.1364,5.1358,5.1467,5.1477,5.1488,5.1692,0,0,5.1521,5.1526,0,0,0,0,0,0,0,0,5.121,5.1228,5.1353,5.1351,5.1348,5.1416,5.1433,5.1564,5.138,5.1365,5.1362,5.1354,5.1459,5.147,5.1505,5.1697,5.1701,5.1522,5.1528,5.1533,5.1536,0,0,0,0,0,0,0,5.1202,5.1222,5.1435,5.1355,5.1352,5.1323,5.1333,5.1458,5.145,5.1366,5.1357,5.1371,5.1457,5.1495,5.1506,5.1703,5.1522,5.1531,5.1538,5.1542,5.2068,5.2075,0,0,0,0,0,0,5.1198,5.1216,5.1431,5.1438,5.126,5.1334,5.1345,5.1401,5.1448,5.1448,5.1377,5.1365,5.148,5.1494,5.151,5.175,5.1533,5.1543,5.1549,5.2061,5.207,5.2078,0,0,0,0,0,0,5.1193,5.1219,5.1427,5.1325,5.1349,5.1347,5.1411,5.1407,5.1444,5.1456,5.1454,5.1416,5.1475,5.1495,5.1647,5.1752,5.1548,5.1558,5.2052,5.2063,5.2074,5.2234,0,0,0,0,0,0,5.1185,5.1217,5.1293,5.1327,5.1355,5.1561,5.1418,5.1414,5.1463,5.1448,5.1493,5.1494,5.1471,5.1632,5.1658,5.1764,5.1566,5.2042,5.2057,5.207,5.2219,5.2249,5.2275,0,0,0,0,0,5.1174,5.1335,5.1297,5.1324,5.1449,5.1568,5.1584,5.1553,5.1472,5.1549,5.1557,5.1492,5.1738,5.1648,5.1677,5.1787,5.2035,5.2053,5.2069,5.2207,5.2243,5.2274,0,0,0,0,0,0,5.1314,5.1339,5.1297,5.1473,5.1519,5.1547,5.1642,5.1593,5.1663,5.1647,5.1608,5.1619,5.1781,5.18,5.17,5.1987,5.1873,5.1897,5.1968,5.2003,5.2031,5.2021,5.1575,0,0,0,0,0,5.1366,5.1458,5.1475,5.1629,5.1654,5.1645,5.1695,5.1668,5.1714,5.1733,5.1752,5.1801,5.1889,5.1948,5.2029,5.2223,5.2231,5.2313,5.2341,5.2364,5.2384,5.2487,5.2524,5.2133,5.2133,5.2133,0,0,5.1472,5.1497,5.1558,5.1658,5.169,5.1788,5.1662,5.1771,5.1843,5.175,5.1894,5.1911,5.1963,5.2137,5.2214,5.2157,5.2494,5.2386,5.2404,5.2411,5.2509,5.2546,5.2578,5.2145,5.2143,5.2141,0,0,5.1716,5.1745,5.1875,5.1911,5.1961,5.1954,5.1986,5.2022,5.2028,5.2172,5.2105,5.2192,5.2345,5.2384,5.2425,5.2687,5.2631,5.2716,5.286,5.2962,5.2993,5.302,5.3112,5.3146,5.2736,5.2737,5.2737,0,5.1843,5.1985,5.195,5.2063,5.2109,5.203,5.2163,5.2199,5.2275,5.2309,5.2245,5.2435,5.2465,5.2646,5.271,5.2746,5.2782,5.2708,5.2991,5.3018,5.3042,5.313,5.3165,5.2746,5.2745,5.2744,5.2743,0,5.2138,5.2239,5.2339,5.2412,5.247,5.2593,5.2578,5.2641,5.261,5.2611,5.276,5.2793,5.288,5.2922,5.2893,5.3101,5.3064,5.2997,5.288,5.309,5.3172,5.3205,5.276,5.2757,5.2754,5.2751,0,0,5.247,5.2523,5.256,5.2592,5.2643,5.2721,5.2842,5.2925,5.298,5.3037,5.3137,5.3269,5.3207,5.3253,5.3229,5.3319,5.3523,5.324,5.324,5.329,5.3753,5.3802,5.3841,5.3488,5.3494,5.3499,5.3748,0,5.2713,5.2918,5.2891,5.309,5.3183,5.311,5.3215,5.3259,5.3264,5.3345,5.3352,5.3445,5.3357,5.3384,5.347,5.348,5.3615,5.3462,5.3581,5.3585,5.3566,5.3884,5.3935,5.4169,5.378,5.3786,5.379,0,5.3022,5.3088,5.3295,5.3332,5.337,5.3465,5.354,5.3619,5.3668,5.3665,5.3718,5.3678,5.3801,5.3686,5.3855,5.3751,5.3799,5.3812,5.3821,5.3828,5.3698,5.3898,5.4242,5.4277,5.384,5.3836,5.3832,0,5.3241,5.3382,5.3524,5.3554,5.3602,5.367,5.3693,5.3736,5.3788,5.3855,5.3889,5.3971,5.4015,5.408,5.4064,5.3981,5.4237,5.412,5.4238,5.4239,5.4293,5.4289,5.4647,5.4329,5.4328,5.4327,5.4327,0,5.3514,5.3643,5.3623,5.371,5.3853,5.3823,5.3966,5.3981,5.402,5.411,5.4054,5.414,5.4115,5.4201,5.419,5.4331,5.4353,5.4354,5.4349,5.4358,5.4357,5.4386,5.4369,5.4337,5.4335,5.4333,5.4331,0,5.378,5.3772,5.3922,5.3955,5.3966,5.4071,5.4099,5.4183,5.4184,5.4299,5.4325,5.4328,5.4426,5.4417,5.4529,5.4521,5.4696,5.4673,5.4678,5.4672,5.479,5.4778,5.5177,5.5228,5.4879,5.4882,5.4885,0,5.3953,5.4051,5.4094,5.415,5.4177,5.4268,5.4321,5.4296,5.4354,5.4418,5.4494,5.4587,5.4659,5.4821,5.4834,5.4919,5.4896,5.5031,5.4909,5.4914,5.4896,5.4889,5.4898,5.5053,5.5057,5.5061,5.5063,0,5.4261,5.4252,5.4329,5.4407,5.4472,5.4532,5.4586,5.4636,5.4616,5.4685,5.4783,5.484,5.4953,5.5046,5.5127,5.5153,5.5106,5.5102,5.5133,5.5141,5.514,5.514,5.4741,5.5092,5.5089,5.5087,5.5086,5.5084,5.4484,5.4568,5.4611,5.47,5.4738,5.4791,5.487,5.4882,5.4963,5.5051,5.5033,5.5145,5.5194,5.5297,5.5332,5.542,5.5371,5.5417,5.5429,5.544,5.5452,5.5128,5.5435,5.5434,5.5433,5.5433,5.5432,0,5.4787,5.4812,5.4894,5.4971,5.5042,5.4991,5.5049,5.5112,5.521,5.5258,5.5331,5.5446,5.5536,5.5558,5.5645,5.5711,5.5692,5.5735,5.5728,5.5735,5.5491,5.5454,5.5749,5.5749,5.5749,5.5749,5.5749,5.5749,5.4952,5.509,5.5087,5.5245,5.5269,5.5376,5.5413,5.5462,5.5501,5.563,5.5705,5.5718,5.5756,5.5846,5.5928,5.5932,5.5966,5.6017,5.6013,5.5784,5.5752,5.5722,5.5687,5.6026,5.6026,5.6249,5.6251,5.6252]},{"header":{"parameterUnit":"m.s-1","parameterCategory":1,"la1":30.2991,"la2":30.254,"lo1":-89.0895,"lo2":-89.0444,"dy":0.0017,"dx":0.0017,"nx":28,"ny":28,"refTime":"2024-06-26T21:00:00:Z","depth":0,"parameterNumber":3,"parameterNumberName":"V-component_of_WINDS"},"data":[0,0,0,0,0,0,0,0,0,0,0,0,0,0,0,0,0,0,0,0,0,0,0,0,0,0,0,0,0,0,0,0,0,0,0,0,0,0,0,0,0,0,0,0,0,0,0,0,0,0,0,0,0,0,0,0,0,0,1.0032,1.0032,0,1.0009,1.0008,1.0008,0.9933,0.9931,0.9929,0.9928,0.9907,0.9908,0.9909,0,0,0,0,0,0,0,0,0,0,0,0,0,1.0014,1.0015,1.0032,1.0031,1.0031,1.0009,1.0008,1.0008,0.9933,0.9931,0.9929,0.9927,0.9907,0.9908,0.9909,0,0,0,0,0,0,0,0,0,0,0,0,0,1.001,1.0015,1.0032,0.9991,0.9987,1.0009,1.0008,1.0008,0.9934,0.9931,0.9928,0.9926,0.9906,0.9908,0.9909,0.9969,0,0,0.9914,0.9915,0,0,0,0,0,0,0,0,1.001,1.001,0.9997,0.9994,0.999,0.9971,0.9994,0.9995,0.9934,0.9954,0.9928,0.9925,0.9931,0.993,0.9931,0.9968,0.9968,0.9914,0.9915,0.9916,0.9916,0,0,0,0,0,0,0,1.001,1.0011,1.0023,0.9997,0.9993,0.9975,0.9971,0.9994,0.9957,0.9952,0.9947,0.9945,0.9928,0.993,0.993,0.9967,0.9914,0.9915,0.9916,0.9917,1.0054,1.0056,0,0,0,0,0,0,1.0016,1.0012,1.0023,1.0022,0.9994,0.9977,0.9973,0.998,0.9956,0.995,0.9947,0.9941,0.9929,0.9929,0.9929,0.9998,0.9916,0.9917,0.9918,1.0051,1.0054,1.0057,0,0,0,0,0,0,1.0016,1.0018,1.0024,1.0015,1.0015,0.998,0.9988,0.998,0.9982,0.9952,0.9946,0.9956,0.9927,0.9927,0.996,0.9997,0.9918,0.9919,1.0048,1.0052,1.0056,1.0138,0,0,0,0,0,0,1.0016,1.0018,1.004,1.0016,1.0016,1.0055,0.999,0.9982,0.9985,0.9977,0.9959,0.9953,0.9925,0.9958,0.9962,0.9997,0.992,1.0044,1.005,1.0054,1.0131,1.0144,1.0155,0,0,0,0,0,1.0015,1.0064,1.0041,1.0043,1.0042,1.0057,1.0057,1.0022,0.9988,1.001,0.9991,0.9954,0.9992,0.9962,0.9965,1.0002,1.0042,1.0048,1.0054,1.0126,1.0141,1.0154,0,0,0,0,0,0,1.0094,1.006,1.0035,1.0077,1.0071,1.0044,1.0071,1.0039,1.0042,1.0035,0.9993,0.9989,1.0029,1.0019,0.9986,1.006,1.0011,1.0018,1.0065,1.0079,1.009,1.0092,0.9922,0,0,0,0,0,1.0116,1.013,1.0101,1.0141,1.0139,1.0106,1.0111,1.0085,1.0077,1.0074,1.0057,1.0051,1.0062,1.007,1.0078,1.013,1.0125,1.0157,1.0168,1.0178,1.0185,1.0212,1.0226,1.0077,1.0077,1.0077,0,0,1.0162,1.0146,1.0157,1.0157,1.0148,1.0165,1.0104,1.0124,1.0136,1.0077,1.0107,1.0095,1.0085,1.0128,1.0146,1.0121,1.0225,1.0186,1.0194,1.0195,1.022,1.0234,1.0247,1.0081,1.008,1.008,0,0,1.0255,1.0244,1.0276,1.0269,1.0257,1.0235,1.0243,1.0221,1.0211,1.024,1.0196,1.0211,1.023,1.0225,1.0225,1.0317,1.0284,1.0321,1.0382,1.041,1.0421,1.0432,1.0465,1.0478,1.0328,1.0328,1.0328,0,1.0314,1.0336,1.0297,1.032,1.0322,1.0268,1.0301,1.0297,1.0289,1.0291,1.0263,1.0286,1.0276,1.0318,1.034,1.0342,1.0351,1.0323,1.0423,1.0432,1.0441,1.0473,1.0486,1.0333,1.0332,1.0332,1.0331,0,1.041,1.0426,1.0454,1.0447,1.0452,1.048,1.0446,1.0456,1.0429,1.0411,1.0442,1.0428,1.0433,1.0441,1.0415,1.0479,1.0464,1.043,1.038,1.0461,1.049,1.0502,1.034,1.0338,1.0336,1.0335,0,0,1.0551,1.0522,1.0533,1.0529,1.0512,1.0525,1.0551,1.0555,1.0565,1.0561,1.0583,1.0601,1.0569,1.057,1.0543,1.0568,1.0643,1.053,1.053,1.0553,1.0713,1.074,1.0754,1.062,1.0622,1.0624,1.0714,0,1.0639,1.0682,1.0648,1.0697,1.0712,1.0662,1.0685,1.0678,1.0661,1.0673,1.0655,1.0668,1.0625,1.0625,1.0647,1.0629,1.0674,1.0622,1.0641,1.0643,1.0646,1.0769,1.0797,1.0883,1.0725,1.0727,1.0729,0,1.0748,1.0748,1.0799,1.0779,1.0785,1.0806,1.0807,1.0818,1.081,1.0796,1.0797,1.0765,1.0791,1.0742,1.0778,1.0743,1.0749,1.0742,1.0744,1.0745,1.0691,1.0774,1.0909,1.0922,1.0746,1.0745,1.0743,0,1.0846,1.086,1.0892,1.089,1.0868,1.0885,1.0877,1.0865,1.087,1.0872,1.0875,1.088,1.0883,1.0888,1.0859,1.0826,1.0899,1.0847,1.089,1.0891,1.0908,1.0907,1.1046,1.0911,1.0911,1.091,1.091,0,1.0948,1.0982,1.0936,1.0956,1.0992,1.0953,1.099,1.0977,1.0968,1.0985,1.0942,1.096,1.0919,1.0933,1.0911,1.0945,1.0946,1.0937,1.093,1.0941,1.0942,1.0945,1.0938,1.0914,1.0913,1.0912,1.0912,0,1.1065,1.1035,1.1067,1.1044,1.1039,1.1067,1.1047,1.1065,1.1046,1.1069,1.1072,1.1042,1.1056,1.1027,1.1037,1.1022,1.107,1.1054,1.1073,1.1069,1.1113,1.111,1.1259,1.1277,1.113,1.1131,1.1132,0,1.1132,1.1156,1.1135,1.1144,1.1138,1.1151,1.1156,1.1119,1.1126,1.1119,1.1138,1.1149,1.1155,1.118,1.116,1.1169,1.1153,1.1205,1.1154,1.1164,1.1155,1.1154,1.1157,1.1215,1.1217,1.1219,1.122,0,1.1255,1.1239,1.1247,1.1251,1.1257,1.1258,1.1256,1.1266,1.1227,1.1237,1.1251,1.1256,1.1266,1.1278,1.1281,1.1274,1.1242,1.1236,1.1246,1.1258,1.1268,1.1264,1.1103,1.1233,1.1232,1.1231,1.123,1.1229,1.1349,1.1368,1.1357,1.1368,1.1362,1.1362,1.1378,1.1361,1.1371,1.1376,1.1354,1.1373,1.1365,1.1367,1.1363,1.1378,1.1355,1.137,1.1374,1.1378,1.1386,1.1265,1.1379,1.1378,1.1378,1.1378,1.1377,0,1.147,1.146,1.147,1.1469,1.1478,1.1445,1.1442,1.1452,1.1468,1.1463,1.1471,1.1487,1.1498,1.148,1.1488,1.1504,1.1489,1.1508,1.1506,1.1506,1.1405,1.1396,1.1519,1.1519,1.1519,1.1519,1.1519,1.1519,1.1534,1.1566,1.1549,1.1578,1.1569,1.1586,1.1587,1.1587,1.1583,1.1603,1.1612,1.1599,1.1589,1.1597,1.1606,1.16,1.1606,1.163,1.1619,1.1526,1.1512,1.1499,1.149,1.1631,1.1631,1.1718,1.1719,1.1719]}]]